West Paducah, KY

2:33 PM CST on February 24, 2017 (GMT -0600)
Barkley Regional

Weather History for KPAH - October, 2012

Change the Weather History Date:

Wednesday, October 31, 2012

  Actual Average Record
Temperature  
Mean Temperature 45 °F 54 °F  
Max Temperature 58 °F 66 °F 85 °F (1950)
Min Temperature 31 °F 43 °F 24 °F (1993)
Degree Days  
Heating Degree Days 20 11  
Month to date heating degree days 280 228  
Since 1 July heating degree days 320 267  
Cooling Degree Days 0 0  
Month to date cooling degree days 25 38  
Year to date cooling degree days 1977 1538  
Moisture  
Dew Point 26 °F    
Average Humidity 53    
Maximum Humidity 82    
Minimum Humidity 23    
Precipitation  
Precipitation 0.00 in 0.12 in 2.50 in (1941)
Month to date precipitation 2.92 3.96  
Year to date precipitation 24.10 40.19  
Snow  
Snow 0.00 in 0.00 in 0.10 in (1993)
Month to date snowfall 0.0 0.1  
Since 1 July snowfall 0.0 0.1  
Since 1 September snowfall 0.0 0.1  
Snow Depth 0.00 in    
Sea Level Pressure  
Sea Level Pressure 29.93 in    
Wind  
Wind Speed 6 mph (West)    
Max Wind Speed 15 mph    
Max Gust Speed 20 mph    
Visibility 10 miles    
Events      
T = Trace of Precipitation, MM = Missing Value Source: NWS Daily Summary

Daily Weather History Graph

Daily Weather History Graph

Search for Another Location

Airport or City:

Trip Planner

Search our weather history database for the weather conditions in past years. The results will help you decide how hot, cold, wet, or windy it might be!

Date:

Astronomy

Oct. 31, 2012 Rise Set
Actual Time 7:18 AM CDT 5:58 PM CDT
Civil Twilight 6:51 AM CDT 6:24 PM CDT
Nautical Twilight 6:21 AM CDT 6:55 PM CDT
Astronomical Twilight 5:50 AM CDT 7:25 PM CDT
Moon 7:11 PM CDT (10/31) 8:57 AM CDT (10/31)
Length of Visible Light 11h 33m
Length of Day
10h 39m
Full, 97% of the Moon is Illuminated
Oct 31
Full
Nov 6
Last Quarter
Nov 13
New
Nov 20
First Quarter
Nov 28
Full

Hourly Weather History & Observations

Time (CDT) Temp. Windchill Dew Point Humidity Pressure Visibility Wind Dir Wind Speed Gust Speed Precip Events Conditions
12:53 AM 39.0 °F 34.0 °F 28.0 °F 65% 29.89 in 10.0 mi West 6.9 mph - N/A   Clear
1:53 AM 39.0 °F 34.8 °F 28.0 °F 65% 29.89 in 10.0 mi West 5.8 mph - N/A   Clear
2:53 AM 37.9 °F 33.5 °F 28.0 °F 68% 29.90 in 10.0 mi West 5.8 mph - N/A   Clear
3:53 AM 39.0 °F 35.7 °F 28.0 °F 65% 29.90 in 10.0 mi West 4.6 mph - N/A   Clear
4:53 AM 37.9 °F 34.4 °F 28.0 °F 68% 29.90 in 10.0 mi West 4.6 mph - N/A   Clear
5:53 AM 35.1 °F 29.3 °F 28.0 °F 76% 29.91 in 10.0 mi West 6.9 mph - N/A   Clear
6:53 AM 35.1 °F 30.1 °F 28.0 °F 76% 29.92 in 10.0 mi West 5.8 mph - N/A   Clear
7:53 AM 36.0 °F 32.1 °F 28.9 °F 76% 29.94 in 10.0 mi West 4.6 mph - N/A   Clear
8:53 AM 42.1 °F 38.4 °F 30.9 °F 65% 29.95 in 10.0 mi WNW 5.8 mph - N/A   Clear
9:53 AM 46.0 °F 41.4 °F 30.0 °F 54% 29.96 in 10.0 mi WNW 9.2 mph - N/A   Clear
10:53 AM 48.0 °F - 30.0 °F 50% 29.96 in 10.0 mi WNW 8.1 mph - N/A   Clear
11:53 AM 52.0 °F - 28.0 °F 40% 29.96 in 10.0 mi WNW 13.8 mph 17.3 mph N/A   Clear
12:53 PM 53.1 °F - 24.1 °F 32% 29.94 in 10.0 mi Variable 6.9 mph 16.1 mph N/A   Clear
1:53 PM 57.0 °F - 24.1 °F 28% 29.92 in 10.0 mi NW 10.4 mph - N/A   Clear
2:53 PM 57.0 °F - 19.9 °F 24% 29.90 in 10.0 mi West 9.2 mph - N/A   Clear
3:53 PM 57.0 °F - 21.0 °F 25% 29.91 in 10.0 mi WNW 11.5 mph - N/A   Clear
4:53 PM 55.9 °F - 19.0 °F 24% 29.91 in 10.0 mi WNW 10.4 mph - N/A   Clear
5:53 PM 53.1 °F - 17.1 °F 24% 29.92 in 10.0 mi NW 6.9 mph - N/A   Clear
6:53 PM 48.0 °F - 18.0 °F 30% 29.93 in 10.0 mi West 3.5 mph - N/A   Clear
7:53 PM 39.0 °F - 27.0 °F 62% 29.94 in 10.0 mi Calm Calm - N/A   Clear
8:53 PM 37.0 °F - 28.0 °F 70% 29.96 in 10.0 mi Calm Calm - N/A   Clear
9:53 PM 35.1 °F 31.0 °F 27.0 °F 72% 29.97 in 10.0 mi WSW 4.6 mph - N/A   Clear
10:53 PM 33.1 °F - 28.0 °F 82% 29.97 in 10.0 mi Calm Calm - N/A   Clear
11:53 PM 32.0 °F 28.7 °F 27.0 °F 82% 29.98 in 10.0 mi West 3.5 mph - N/A   Clear